Time,TemperatureF,DewpointF,PressureIn,WindDirection,WindDirectionDegrees,WindSpeedMPH,WindSpeedGustMPH,Humidity,HourlyPrecipIn,Conditions,Clouds,dailyrainin,SoftwareType,DateUTC
2013-04-03 00:03:00,49.0,-99.9,30.19,West,261,4.0,6.0,-999,-99.99,,,-99.99,,2013-04-03 07:03:00,
2013-04-03 00:12:00,49.0,-99.9,30.19,WNW,286,4.0,5.0,-999,-99.99,,,-99.99,,2013-04-03 07:12:00,
2013-04-03 00:23:00,49.0,-99.9,30.19,WNW,290,5.0,6.0,-999,-99.99,,,-99.99,,2013-04-03 07:23:00,
2013-04-03 00:33:00,49.0,-99.9,30.19,WNW,291,5.0,6.0,-999,-99.99,,,-99.99,,2013-04-03 07:33:00,
2013-04-03 00:43:00,49.0,-99.9,30.20,NW,325,2.0,4.0,-999,-99.99,,,-99.99,,2013-04-03 07:43:00,
2013-04-03 00:53:00,49.0,-99.9,30.20,WNW,297,5.0,6.0,-999,-99.99,,,-99.99,,2013-04-03 07:53:00,
2013-04-03 01:12:00,49.0,-99.9,30.20,WNW,292,5.0,6.0,-999,-99.99,,,-99.99,,2013-04-03 08:12:00,
2013-04-03 01:22:00,49.0,-99.9,30.20,WNW,299,4.0,7.0,-999,-99.99,,,-99.99,,2013-04-03 08:22:00,
2013-04-03 01:33:00,49.0,-99.9,30.20,WNW,294,5.0,7.0,-999,-99.99,,,-99.99,,2013-04-03 08:33:00,
2013-04-03 01:43:00,49.0,-99.9,30.20,WNW,294,6.0,7.0,-999,-99.99,,,-99.99,,2013-04-03 08:43:00,
2013-04-03 01:52:00,49.0,-99.9,30.20,WNW,293,6.0,7.0,-999,-99.99,,,-99.99,,2013-04-03 08:52:00,
2013-04-03 02:02:00,49.0,-99.9,30.20,WNW,290,6.0,7.0,-999,-99.99,,,-99.99,,2013-04-03 09:02:00,
2013-04-03 02:12:00,49.0,-99.9,30.20,WNW,295,5.0,6.0,-999,-99.99,,,-99.99,,2013-04-03 09:12:00,
2013-04-03 02:22:00,49.0,-99.9,30.20,WNW,296,5.0,6.0,-999,-99.99,,,-99.99,,2013-04-03 09:22:00,
2013-04-03 02:33:00,49.0,-99.9,30.20,WNW,294,5.0,6.0,-999,-99.99,,,-99.99,,2013-04-03 09:33:00,
2013-04-03 02:43:00,49.0,-99.9,30.19,WNW,295,4.0,5.0,-999,-99.99,,,-99.99,,2013-04-03 09:43:00,
2013-04-03 02:53:00,49.0,-99.9,30.19,WNW,294,4.0,6.0,-999,-99.99,,,-99.99,,2013-04-03 09:53:00,
2013-04-03 03:03:00,49.0,-99.9,30.19,WNW,296,4.0,5.0,-999,-99.99,,,-99.99,,2013-04-03 10:03:00,
2013-04-03 03:13:00,49.0,-99.9,30.19,WNW,294,4.0,6.0,-999,-99.99,,,-99.99,,2013-04-03 10:13:00,
2013-04-03 03:22:00,49.0,-99.9,30.19,WNW,289,5.0,6.0,-999,-99.99,,,-99.99,,2013-04-03 10:22:00,
2013-04-03 03:33:00,49.0,-99.9,30.19,WNW,286,5.0,6.0,-999,-99.99,,,-99.99,,2013-04-03 10:33:00,
2013-04-03 03:43:00,49.0,-99.9,30.19,WNW,299,4.0,6.0,-999,-99.99,,,-99.99,,2013-04-03 10:43:00,
2013-04-03 03:53:00,49.0,-99.9,30.19,NW,322,3.0,6.0,-999,-99.99,,,-99.99,,2013-04-03 10:53:00,
2013-04-03 04:03:00,49.0,-99.9,30.19,NW,304,4.0,4.0,-999,-99.99,,,-99.99,,2013-04-03 11:03:00,
2013-04-03 04:12:00,49.0,-99.9,30.19,WNW,301,4.0,4.0,-999,-99.99,,,-99.99,,2013-04-03 11:12:00,
2013-04-03 04:23:00,49.0,-99.9,30.18,NNW,337,2.0,4.0,-999,-99.99,,,-99.99,,2013-04-03 11:23:00,
2013-04-03 04:33:00,49.0,-99.9,30.18,NNW,329,2.0,4.0,-999,-99.99,,,-99.99,,2013-04-03 11:33:00,
2013-04-03 04:43:00,49.0,-99.9,30.18,WNW,291,4.0,5.0,-999,-99.99,,,-99.99,,2013-04-03 11:43:00,
2013-04-03 04:53:00,49.0,-99.9,30.18,WNW,290,4.0,5.0,-999,-99.99,,,-99.99,,2013-04-03 11:53:00,
2013-04-03 05:02:00,49.0,-99.9,30.18,WNW,298,3.0,4.0,-999,-99.99,,,-99.99,,2013-04-03 12:02:00,
2013-04-03 05:13:00,49.0,-99.9,30.18,NW,305,3.0,4.0,-999,-99.99,,,-99.99,,2013-04-03 12:13:00,
2013-04-03 05:22:00,49.0,-99.9,30.17,NW,304,2.0,4.0,-999,-99.99,,,-99.99,,2013-04-03 12:22:00,
2013-04-03 05:33:00,49.0,-99.9,30.18,WNW,289,3.0,4.0,-999,-99.99,,,-99.99,,2013-04-03 12:33:00,
2013-04-03 05:42:00,49.0,-99.9,30.17,NW,312,2.0,3.0,-999,-99.99,,,-99.99,,2013-04-03 12:42:00,
2013-04-03 05:53:00,49.0,-99.9,30.17,WNW,297,3.0,3.0,-999,-99.99,,,-99.99,,2013-04-03 12:53:00,
2013-04-03 06:02:00,49.0,-99.9,30.17,WNW,301,3.0,4.0,-999,-99.99,,,-99.99,,2013-04-03 13:02:00,
2013-04-03 06:13:00,49.0,-99.9,30.16,NW,319,2.0,3.0,-999,-99.99,,,-99.99,,2013-04-03 13:13:00,
2013-04-03 06:22:00,49.0,-99.9,30.16,NNW,344,3.0,4.0,-999,-99.99,,,-99.99,,2013-04-03 13:22:00,
2013-04-03 06:32:00,49.0,-99.9,30.16,NNW,332,2.0,4.0,-999,-99.99,,,-99.99,,2013-04-03 13:32:00,
2013-04-03 06:42:00,49.0,-99.9,30.16,NNW,346,2.0,4.0,-999,-99.99,,,-99.99,,2013-04-03 13:42:00,
2013-04-03 06:52:00,49.0,-99.9,30.16,WNW,303,2.0,3.0,-999,-99.99,,,-99.99,,2013-04-03 13:52:00,
2013-04-03 07:02:00,49.0,-99.9,30.16,WNW,290,1.0,2.0,-999,-99.99,,,-99.99,,2013-04-03 14:02:00,
2013-04-03 07:13:00,49.0,-99.9,30.16,West,260,2.0,2.0,-999,-99.99,,,-99.99,,2013-04-03 14:13:00,
2013-04-03 07:22:00,49.0,-99.9,30.16,West,268,2.0,3.0,-999,-99.99,,,-99.99,,2013-04-03 14:22:00,
2013-04-03 07:32:00,49.0,-99.9,30.16,WSW,258,2.0,2.0,-999,-99.99,,,-99.99,,2013-04-03 14:32:00,
2013-04-03 07:43:00,49.0,-99.9,30.16,WNW,282,0.0,2.0,-999,-99.99,,,-99.99,,2013-04-03 14:43:00,
2013-04-03 07:52:00,49.0,-99.9,30.16,NNE,15,0.0,3.0,-999,-99.99,,,-99.99,,2013-04-03 14:52:00,
2013-04-03 08:03:00,49.0,-99.9,30.16,WNW,294,1.0,2.0,-999,-99.99,,,-99.99,,2013-04-03 15:03:00,
2013-04-03 08:13:00,49.0,-99.9,30.16,NNW,341,0.0,2.0,-999,-99.99,,,-99.99,,2013-04-03 15:13:00,
2013-04-03 08:24:00,49.0,-99.9,30.16,ESE,102,1.0,2.0,-999,-99.99,,,-99.99,,2013-04-03 15:24:00,
2013-04-03 08:33:00,49.0,-99.9,30.16,NW,318,1.0,2.0,-999,-99.99,,,-99.99,,2013-04-03 15:33:00,
2013-04-03 08:43:00,49.0,-99.9,30.15,West,271,-999.0,2.0,-999,-99.99,,,-99.99,,2013-04-03 15:43:00,
2013-04-03 08:54:00,49.0,-99.9,30.15,NW,308,-999.0,2.0,-999,-99.99,,,-99.99,,2013-04-03 15:54:00,
2013-04-03 09:04:00,50.0,-99.9,30.14,ESE,102,2.0,3.0,-999,-99.99,,,-99.99,,2013-04-03 16:04:00,
2013-04-03 09:13:00,50.0,-99.9,30.14,South,178,-999.0,1.0,-999,-99.99,,,-99.99,,2013-04-03 16:13:00,
2013-04-03 09:25:00,50.0,-99.9,30.14,ESE,106,3.0,4.0,-999,-99.99,,,-99.99,,2013-04-03 16:25:00,
2013-04-03 09:33:00,50.0,-99.9,30.14,East,95,2.0,4.0,-999,-99.99,,,-99.99,,2013-04-03 16:33:00,
2013-04-03 09:44:00,50.0,-99.9,30.14,SSE,159,2.0,4.0,-999,-99.99,,,-99.99,,2013-04-03 16:44:00,
2013-04-03 09:53:00,50.0,-99.9,30.14,SSE,151,2.0,3.0,-999,-99.99,,,-99.99,,2013-04-03 16:53:00,
2013-04-03 10:03:00,50.0,-99.9,30.14,SSE,151,2.0,3.0,-999,-99.99,,,-99.99,,2013-04-03 17:03:00,
2013-04-03 10:14:00,50.0,-99.9,30.14,South,175,1.0,2.0,-999,-99.99,,,-99.99,,2013-04-03 17:14:00,
2013-04-03 10:23:00,51.0,-99.9,30.15,SSW,197,1.0,1.0,-999,-99.99,,,-99.99,,2013-04-03 17:23:00,
2013-04-03 10:35:00,51.0,-99.9,30.15,SSW,211,1.0,2.0,-999,-99.99,,,-99.99,,2013-04-03 17:35:00,
2013-04-03 10:47:00,53.0,-99.9,30.15,East,98,-999.0,1.0,-999,-99.99,,,-99.99,,2013-04-03 17:47:00,
2013-04-03 10:54:00,51.0,-99.9,30.15,West,271,3.0,3.0,-999,-99.99,,,-99.99,,2013-04-03 17:54:00,
2013-04-03 11:03:00,51.0,-99.9,30.14,WNW,282,3.0,4.0,-999,-99.99,,,-99.99,,2013-04-03 18:03:00,
2013-04-03 11:13:00,51.0,-99.9,30.14,West,267,3.0,4.0,-999,-99.99,,,-99.99,,2013-04-03 18:13:00,
2013-04-03 11:23:00,52.0,-99.9,30.14,WSW,246,2.0,4.0,-999,-99.99,,,-99.99,,2013-04-03 18:23:00,
2013-04-03 11:35:00,53.0,-99.9,30.14,West,274,2.0,2.0,-999,-99.99,,,-99.99,,2013-04-03 18:35:00,
2013-04-03 11:43:00,53.0,-99.9,30.13,West,280,3.0,3.0,-999,-99.99,,,-99.99,,2013-04-03 18:43:00,
2013-04-03 11:52:00,52.0,-99.9,30.13,WNW,288,4.0,4.0,-999,-99.99,,,-99.99,,2013-04-03 18:52:00,
2013-04-03 12:03:00,53.0,-99.9,30.13,West,276,4.0,4.0,-999,-99.99,,,-99.99,,2013-04-03 19:03:00,
2013-04-03 12:13:00,53.0,-99.9,30.13,West,276,4.0,4.0,-999,-99.99,,,-99.99,,2013-04-03 19:13:00,
2013-04-03 12:22:00,53.0,-99.9,30.13,WNW,292,4.0,5.0,-999,-99.99,,,-99.99,,2013-04-03 19:22:00,
2013-04-03 12:33:00,54.0,-99.9,30.13,WNW,289,4.0,5.0,-999,-99.99,,,-99.99,,2013-04-03 19:33:00,
2013-04-03 12:42:00,56.0,-99.9,30.12,WNW,295,3.0,4.0,-999,-99.99,,,-99.99,,2013-04-03 19:42:00,
2013-04-03 12:52:00,55.0,-99.9,30.12,WNW,283,4.0,4.0,-999,-99.99,,,-99.99,,2013-04-03 19:52:00,
2013-04-03 13:02:00,55.0,-99.9,30.12,WNW,292,5.0,6.0,-999,-99.99,,,-99.99,,2013-04-03 20:02:00,
2013-04-03 13:13:00,56.0,-99.9,30.12,WNW,290,4.0,5.0,-999,-99.99,,,-99.99,,2013-04-03 20:13:00,
2013-04-03 13:23:00,56.0,-99.9,30.12,WNW,284,4.0,4.0,-999,-99.99,,,-99.99,,2013-04-03 20:23:00,
2013-04-03 13:33:00,56.0,-99.9,30.11,West,281,4.0,5.0,-999,-99.99,,,-99.99,,2013-04-03 20:33:00,
2013-04-03 13:42:00,56.0,-99.9,30.11,West,281,5.0,6.0,-999,-99.99,,,-99.99,,2013-04-03 20:42:00,
2013-04-03 13:54:00,57.0,-99.9,30.10,WNW,291,4.0,5.0,-999,-99.99,,,-99.99,,2013-04-03 20:54:00,
2013-04-03 14:03:00,58.0,-99.9,30.10,WNW,290,5.0,5.0,-999,-99.99,,,-99.99,,2013-04-03 21:03:00,
2013-04-03 14:12:00,57.0,-99.9,30.10,WNW,284,6.0,6.0,-999,-99.99,,,-99.99,,2013-04-03 21:12:00,
2013-04-03 14:22:00,58.0,-99.9,30.10,WNW,301,5.0,6.0,-999,-99.99,,,-99.99,,2013-04-03 21:22:00,
2013-04-03 14:33:00,59.0,-99.9,30.09,WNW,300,4.0,6.0,-999,-99.99,,,-99.99,,2013-04-03 21:33:00,
2013-04-03 14:42:00,60.0,-99.9,30.09,NW,308,4.0,6.0,-999,-99.99,,,-99.99,,2013-04-03 21:42:00,
2013-04-03 14:52:00,60.0,-99.9,30.09,WNW,297,4.0,5.0,-999,-99.99,,,-99.99,,2013-04-03 21:52:00,
2013-04-03 15:02:00,60.0,-99.9,30.09,WNW,296,4.0,5.0,-999,-99.99,,,-99.99,,2013-04-03 22:02:00,
2013-04-03 15:13:00,60.0,-99.9,30.08,WNW,295,4.0,5.0,-999,-99.99,,,-99.99,,2013-04-03 22:13:00,
2013-04-03 15:22:00,61.0,-99.9,30.08,WNW,291,3.0,4.0,-999,-99.99,,,-99.99,,2013-04-03 22:22:00,
2013-04-03 15:33:00,60.0,-99.9,30.08,WNW,287,4.0,4.0,-999,-99.99,,,-99.99,,2013-04-03 22:33:00,
2013-04-03 15:42:00,61.0,-99.9,30.07,WNW,297,3.0,4.0,-999,-99.99,,,-99.99,,2013-04-03 22:42:00,
2013-04-03 15:53:00,61.0,-99.9,30.07,WNW,288,3.0,3.0,-999,-99.99,,,-99.99,,2013-04-03 22:53:00,
2013-04-03 16:02:00,62.0,-99.9,30.06,WNW,291,3.0,4.0,-999,-99.99,,,-99.99,,2013-04-03 23:02:00,
2013-04-03 16:12:00,61.0,-99.9,30.06,WNW,292,4.0,4.0,-999,-99.99,,,-99.99,,2013-04-03 23:12:00,
2013-04-03 16:22:00,61.0,-99.9,30.06,WNW,290,3.0,4.0,-999,-99.99,,,-99.99,,2013-04-03 23:22:00,
2013-04-03 16:33:00,62.0,-99.9,30.05,WNW,292,3.0,4.0,-999,-99.99,,,-99.99,,2013-04-03 23:33:00,
2013-04-03 16:43:00,62.0,-99.9,30.05,WNW,299,2.0,4.0,-999,-99.99,,,-99.99,,2013-04-03 23:43:00,
2013-04-03 16:55:00,62.0,-99.9,30.04,WNW,293,3.0,4.0,-999,-99.99,,,-99.99,,2013-04-03 23:55:00,
2013-04-03 17:03:00,62.0,-99.9,30.04,WNW,292,4.0,4.0,-999,-99.99,,,-99.99,,2013-04-04 00:03:00,
2013-04-03 17:12:00,62.0,-99.9,30.03,WNW,291,4.0,4.0,-999,-99.99,,,-99.99,,2013-04-04 00:12:00,
2013-04-03 17:22:00,62.0,-99.9,30.02,WNW,287,2.0,2.0,-999,-99.99,,,-99.99,,2013-04-04 00:22:00,
2013-04-03 17:32:00,62.0,-99.9,30.02,WSW,252,2.0,2.0,-999,-99.99,,,-99.99,,2013-04-04 00:32:00,
2013-04-03 17:43:00,62.0,-99.9,30.01,West,259,1.0,2.0,-999,-99.99,,,-99.99,,2013-04-04 00:43:00,
2013-04-03 17:53:00,63.0,-99.9,30.01,West,265,3.0,3.0,-999,-99.99,,,-99.99,,2013-04-04 00:53:00,
2013-04-03 18:02:00,63.0,-99.9,30.01,West,275,2.0,3.0,-999,-99.99,,,-99.99,,2013-04-04 01:02:00,
2013-04-03 18:12:00,63.0,-99.9,30.01,WSW,258,2.0,2.0,-999,-99.99,,,-99.99,,2013-04-04 01:12:00,
2013-04-03 18:22:00,64.0,-99.9,30.00,SW,229,1.0,2.0,-999,-99.99,,,-99.99,,2013-04-04 01:22:00,
2013-04-03 18:32:00,64.0,-99.9,29.99,SW,229,-999.0,1.0,-999,-99.99,,,-99.99,,2013-04-04 01:32:00,
2013-04-03 18:43:00,64.0,-99.9,29.99,North,-999,-999.0,-999.0,-999,-99.99,,,-99.99,,2013-04-04 01:43:00,
2013-04-03 18:53:00,64.0,-99.9,29.98,SW,234,1.0,1.0,-999,-99.99,,,-99.99,,2013-04-04 01:53:00,
2013-04-03 19:02:00,64.0,-99.9,29.98,SW,234,1.0,1.0,-999,-99.99,,,-99.99,,2013-04-04 02:02:00,
2013-04-03 19:12:00,63.0,-99.9,29.98,WSW,250,2.0,2.0,-999,-99.99,,,-99.99,,2013-04-04 02:12:00,
2013-04-03 19:22:00,63.0,-99.9,29.98,SW,220,2.0,2.0,-999,-99.99,,,-99.99,,2013-04-04 02:22:00,
2013-04-03 19:32:00,62.0,-99.9,29.98,SW,218,3.0,3.0,-999,-99.99,,,-99.99,,2013-04-04 02:32:00,
2013-04-03 19:42:00,62.0,-99.9,29.98,SW,218,3.0,3.0,-999,-99.99,,,-99.99,,2013-04-04 02:42:00,
2013-04-03 19:53:00,62.0,-99.9,29.98,SW,218,3.0,3.0,-999,-99.99,,,-99.99,,2013-04-04 02:53:00,
2013-04-03 20:02:00,61.0,-99.9,29.97,WSW,239,2.0,2.0,-999,-99.99,,,-99.99,,2013-04-04 03:02:00,
2013-04-03 20:12:00,60.0,-99.9,29.97,WSW,245,2.0,2.0,-999,-99.99,,,-99.99,,2013-04-04 03:12:00,
2013-04-03 20:23:00,60.0,-99.9,29.96,WSW,237,2.0,2.0,-999,-99.99,,,-99.99,,2013-04-04 03:23:00,
2013-04-03 20:34:00,60.0,-99.9,29.96,West,260,0.0,1.0,-999,-99.99,,,-99.99,,2013-04-04 03:34:00,
2013-04-03 20:45:00,59.0,-99.9,29.96,SW,231,-999.0,0.0,-999,-99.99,,,-99.99,,2013-04-04 03:45:00,
2013-04-03 20:53:00,59.0,-99.9,29.96,SSE,159,-999.0,2.0,-999,-99.99,,,-99.99,,2013-04-04 03:53:00,
2013-04-03 21:03:00,58.0,-99.9,29.96,ESE,115,4.0,5.0,-999,-99.99,,,-99.99,,2013-04-04 04:03:00,
2013-04-03 21:13:00,58.0,-99.9,29.96,ESE,112,4.0,5.0,-999,-99.99,,,-99.99,,2013-04-04 04:13:00,
2013-04-03 21:23:00,57.0,-99.9,29.96,ESE,111,2.0,3.0,-999,-99.99,,,-99.99,,2013-04-04 04:23:00,
2013-04-03 21:34:00,58.0,-99.9,29.96,ESE,122,2.0,3.0,-999,-99.99,,,-99.99,,2013-04-04 04:34:00,
2013-04-03 21:43:00,57.0,-99.9,29.96,SE,126,3.0,4.0,-999,-99.99,,,-99.99,,2013-04-04 04:43:00,
2013-04-03 21:53:00,57.0,-99.9,29.96,ESE,121,2.0,4.0,-999,-99.99,,,-99.99,,2013-04-04 04:53:00,
2013-04-03 22:02:00,57.0,-99.9,29.95,ESE,106,2.0,3.0,-999,-99.99,,,-99.99,,2013-04-04 05:02:00,
2013-04-03 22:13:00,57.0,-99.9,29.95,ENE,71,2.0,3.0,-999,-99.99,,,-99.99,,2013-04-04 05:13:00,
2013-04-03 22:23:00,57.0,-99.9,29.95,SE,135,2.0,2.0,-999,-99.99,,,-99.99,,2013-04-04 05:23:00,
2013-04-03 22:32:00,57.0,-99.9,29.95,ESE,110,1.0,2.0,-999,-99.99,,,-99.99,,2013-04-04 05:32:00,
2013-04-03 22:42:00,56.0,-99.9,29.95,ESE,105,1.0,2.0,-999,-99.99,,,-99.99,,2013-04-04 05:42:00,
2013-04-03 22:53:00,57.0,-99.9,29.94,East,84,2.0,2.0,-999,-99.99,,,-99.99,,2013-04-04 05:53:00,
2013-04-03 23:03:00,57.0,-99.9,29.94,East,90,2.0,2.0,-999,-99.99,,,-99.99,,2013-04-04 06:03:00,
2013-04-03 23:13:00,55.0,-99.9,29.94,SSE,160,2.0,3.0,-999,-99.99,,,-99.99,,2013-04-04 06:13:00,
2013-04-03 23:22:00,55.0,-99.9,29.94,SE,125,1.0,2.0,-999,-99.99,,,-99.99,,2013-04-04 06:22:00,
2013-04-03 23:33:00,55.0,-99.9,29.93,ESE,108,2.0,2.0,-999,-99.99,,,-99.99,,2013-04-04 06:33:00,
2013-04-03 23:43:00,55.0,-99.9,29.93,ESE,107,2.0,3.0,-999,-99.99,,,-99.99,,2013-04-04 06:43:00,
2013-04-03 23:53:00,55.0,-99.9,29.93,ESE,108,2.0,3.0,-999,-99.99,,,-99.99,,2013-04-04 06:53:00,